| time (UTC) | temp F | wind direction | speed MPH | gust MPH | rain 1hr in | rain 24hr in | rain mn in | humidity % | barometer mb |
| 20260507105703 | 69 | 109 | 10.0 | 10.0 | 0.00 | 0.00 | 0.00 | 87 | 1010.5 |
| 20260507105104 | 70 | 96 | 6.0 | 10.0 | 0.00 | 0.00 | 0.00 | 87 | 1010.5 |
| 20260507104504 | 69 | 90 | 10.0 | 10.0 | 0.00 | 0.00 | 0.00 | 88 | 1010.5 |
| 20260507103904 | 69 | 112 | 10.0 | 10.0 | 0.00 | 0.00 | 0.00 | 88 | 1010.5 |
| 20260507103604 | 69 | 125 | 10.0 | 10.0 | 0.00 | 0.00 | 0.00 | 88 | 1010.5 |
| 20260507103303 | 69 | 135 | 10.0 | 10.0 | 0.00 | 0.00 | 0.00 | 86 | 1010.5 |
| 20260507103004 | 70 | 131 | 8.0 | 9.0 | 0.00 | 0.00 | 0.00 | 87 | 1010.5 |
| 20260507102704 | 69 | 135 | 8.0 | 9.0 | 0.00 | 0.00 | 0.00 | 86 | 1010.5 |
| 20260507102403 | 69 | 141 | 9.0 | 9.0 | 0.00 | 0.00 | 0.00 | 86 | 1010.5 |
| 20260507102104 | 69 | 152 | 8.0 | 8.0 | 0.00 | 0.00 | 0.00 | 87 | 1010.5 |
| 20260507101804 | 68 | 158 | 6.0 | 6.0 | 0.00 | 0.00 | 0.00 | 87 | 1010.5 |
| 20260507101504 | 69 | 145 | 6.0 | 6.0 | 0.00 | 0.00 | 0.00 | 88 | 1010.5 |
| 20260507101204 | 69 | 131 | 6.0 | 6.0 | 0.00 | 0.00 | 0.00 | 88 | 1010.5 |
| 20260507100604 | 68 | 105 | 4.0 | 9.0 | 0.00 | 0.00 | 0.00 | 89 | 1010.5 |
| 20260507100303 | 69 | 100 | 4.0 | 9.0 | 0.00 | 0.00 | 0.00 | 87 | 1010.5 |
| 20260507100005 | 69 | 94 | 6.0 | 11.0 | 0.00 | 0.00 | 0.00 | 87 | 1010.5 |
| 20260507095404 | 69 | 79 | 6.0 | 11.0 | 0.00 | 0.00 | 0.00 | 86 | 1010.5 |
| 20260507094504 | 69 | 121 | 9.0 | 11.0 | 0.00 | 0.00 | 0.00 | 87 | 1010.5 |
| 20260507094203 | 69 | 123 | 8.0 | 10.0 | 0.00 | 0.00 | 0.00 | 86 | 1010.5 |
| 20260507093604 | 68 | 118 | 10.0 | 10.0 | 0.00 | 0.00 | 0.00 | 87 | 1010.5 |
| 20260507093004 | 68 | 95 | 9.0 | 11.0 | 0.00 | 0.00 | 0.00 | 86 | 1010.5 |
| 20260507092703 | 68 | 120 | 4.0 | 13.0 | 0.00 | 0.00 | 0.00 | 86 | 1010.5 |
| 20260507092403 | 68 | 106 | 11.0 | 13.0 | 0.00 | 0.00 | 0.00 | 86 | 1010.5 |
| 20260507092104 | 68 | 106 | 4.0 | 13.0 | 0.00 | 0.00 | 0.00 | 87 | 1010.5 |
| 20260507091804 | 68 | 90 | 8.0 | 13.0 | 0.00 | 0.00 | 0.00 | 87 | 1010.5 |
| 20260507091504 | 67 | 90 | 8.0 | 16.0 | 0.00 | 0.00 | 0.00 | 89 | 1010.5 |
| 20260507091203 | 68 | 90 | 5.0 | 16.0 | 0.00 | 0.00 | 0.00 | 89 | 1010.5 |
| 20260507090604 | 68 | 87 | 16.0 | 16.0 | 0.00 | 0.00 | 0.00 | 88 | 1010.5 |
| 20260507090304 | 69 | 100 | 11.0 | 12.0 | 0.00 | 0.00 | 0.00 | 89 | 1010.5 |
| 20260507090005 | 68 | 111 | 12.0 | 12.0 | 0.00 | 0.00 | 0.00 | 89 | 1010.5 |
| 20260507085404 | 68 | 92 | 10.0 | 11.0 | 0.00 | 0.00 | 0.00 | 89 | 1010.5 |
| 20260507085105 | 68 | 81 | 11.0 | 11.0 | 0.00 | 0.00 | 0.00 | 89 | 1010.5 |
| 20260507084804 | 69 | 78 | 4.0 | 11.0 | 0.00 | 0.00 | 0.00 | 89 | 1009.5 |
| 20260507084504 | 68 | 66 | 11.0 | 11.0 | 0.00 | 0.00 | 0.00 | 89 | 1009.5 |
| 20260507084204 | 68 | 60 | 11.0 | 11.0 | 0.00 | 0.00 | 0.00 | 89 | 1009.5 |
| 20260507083904 | 69 | 45 | 6.0 | 6.0 | 0.00 | 0.00 | 0.00 | 89 | 1009.5 |
| 20260507083604 | 69 | 51 | 6.0 | 7.0 | 0.00 | 0.00 | 0.00 | 89 | 1009.5 |
| 20260507083304 | 68 | 83 | 6.0 | 7.0 | 0.00 | 0.00 | 0.00 | 88 | 1010.5 |
| 20260507083004 | 68 | 116 | 6.0 | 7.0 | 0.00 | 0.00 | 0.00 | 89 | 1010.5 |
| 20260507082704 | 68 | 140 | 7.0 | 7.0 | 0.00 | 0.00 | 0.00 | 90 | 1010.5 |
| 20260507082404 | 68 | 135 | 6.0 | 6.0 | 0.00 | 0.00 | 0.00 | 90 | 1010.5 |
| 20260507082104 | 68 | 135 | 5.0 | 6.0 | 0.00 | 0.00 | 0.00 | 90 | 1010.5 |
| 20260507081804 | 68 | 135 | 5.0 | 6.0 | 0.00 | 0.00 | 0.00 | 89 | 1009.5 |
| 20260507081504 | 68 | 135 | 5.0 | 6.0 | 0.00 | 0.00 | 0.00 | 89 | 1009.5 |
| 20260507081204 | 68 | 130 | 6.0 | 6.0 | 0.00 | 0.00 | 0.00 | 88 | 1009.5 |
| 20260507080904 | 68 | 111 | 6.0 | 6.0 | 0.00 | 0.00 | 0.00 | 89 | 1009.5 |
| 20260507080603 | 69 | 95 | 6.0 | 6.0 | 0.00 | 0.00 | 0.00 | 90 | 1009.5 |
| 20260507080303 | 68 | 83 | 5.0 | 6.0 | 0.00 | 0.00 | 0.00 | 90 | 1010.5 |
| 20260507080004 | 68 | 85 | 5.0 | 6.0 | 0.00 | 0.00 | 0.00 | 90 | 1010.5 |
| 20260507075703 | 68 | 86 | 6.0 | 6.0 | 0.00 | 0.00 | 0.00 | 90 | 1010.5 |
| 20260507075404 | 68 | 85 | 6.0 | 6.0 | 0.00 | 0.00 | 0.00 | 90 | 1010.5 |
| 20260507075104 | 68 | 82 | 3.0 | 6.0 | 0.00 | 0.00 | 0.00 | 90 | 1010.5 |
| 20260507074804 | 68 | 71 | 3.0 | 6.0 | 0.00 | 0.00 | 0.00 | 90 | 1010.5 |
| 20260507073904 | 67 | 52 | 6.0 | 8.0 | 0.00 | 0.00 | 0.00 | 92 | 1010.5 |
| 20260507073604 | 66 | 85 | 8.0 | 8.0 | 0.00 | 0.00 | 0.00 | 91 | 1010.5 |
| 20260507073303 | 67 | 96 | 2.0 | 4.0 | 0.00 | 0.00 | 0.00 | 91 | 1010.5 |
| 20260507073003 | 67 | 82 | 2.0 | 4.0 | 0.00 | 0.00 | 0.00 | 91 | 1010.5 |
| 20260507072704 | 67 | 75 | 4.0 | 8.0 | 0.00 | 0.00 | 0.00 | 91 | 1010.5 |
| 20260507072403 | 67 | 70 | 2.0 | 8.0 | 0.00 | 0.00 | 0.00 | 91 | 1010.5 |
| 20260507072103 | 67 | 72 | 3.0 | 8.0 | 0.00 | 0.00 | 0.00 | 91 | 1010.5 |
| 20260507071804 | 67 | 75 | 8.0 | 8.0 | 0.00 | 0.00 | 0.00 | 91 | 1010.5 |
| 20260507071203 | 67 | 55 | 5.0 | 5.0 | 0.00 | 0.00 | 0.00 | 92 | 1010.5 |
| 20260507070604 | 67 | 21 | 3.0 | 4.0 | 0.00 | 0.00 | 0.00 | 93 | 1010.5 |
| 20260507070304 | 66 | 37 | 4.0 | 6.0 | 0.00 | 0.00 | 0.00 | 93 | 1010.5 |
| 20260507070008 | 66 | 46 | 3.0 | 6.0 | 0.00 | 0.00 | 0.00 | 94 | 1010.5 |
| 20260507065703 | 66 | 56 | 4.0 | 6.0 | 0.00 | 0.00 | 0.00 | 94 | 1010.5 |
| 20260507065404 | 65 | 50 | 6.0 | 6.0 | 0.00 | 0.00 | 0.00 | 95 | 1010.5 |
| 20260507065104 | 65 | 48 | 3.0 | 4.0 | 0.00 | 0.00 | 0.00 | 96 | 1010.5 |
| 20260507064803 | 65 | 45 | 3.0 | 4.0 | 0.00 | 0.00 | 0.00 | 96 | 1010.5 |
| 20260507064503 | 64 | 33 | 3.0 | 4.0 | 0.00 | 0.00 | 0.00 | 97 | 1010.5 |
| 20260507064204 | 64 | 26 | 4.0 | 4.0 | 0.00 | 0.00 | 0.00 | 97 | 1010.5 |
| 20260507063904 | 63 | 10 | 4.0 | 4.0 | 0.00 | 0.00 | 0.00 | 97 | 1010.5 |
| 20260507063604 | 63 | 12 | 2.0 | 3.0 | 0.00 | 0.00 | 0.00 | 98 | 1010.5 |
| 20260507063303 | 62 | 16 | 2.0 | 4.0 | 0.00 | 0.00 | 0.00 | 98 | 1009.5 |
| 20260507063003 | 62 | 13 | 2.0 | 4.0 | 0.00 | 0.00 | 0.00 | 98 | 1009.5 |
| 20260507062704 | 61 | 22 | 2.0 | 4.0 | 0.00 | 0.00 | 0.00 | 98 | 1009.5 |
| 20260507062404 | 60 | 27 | 3.0 | 4.0 | 0.00 | 0.00 | 0.00 | 98 | 1009.5 |
| 20260507062103 | 59 | 33 | 1.0 | 3.0 | 0.00 | 0.00 | 0.00 | 98 | 1009.5 |
| 20260507061504 | 59 | 32 | 3.0 | 3.0 | 0.00 | 0.00 | 0.00 | 98 | 1009.5 |
| 20260507061204 | 59 | 24 | 3.0 | 3.0 | 0.00 | 0.00 | 0.00 | 98 | 1009.5 |
| 20260507060904 | 59 | 37 | 3.0 | 3.0 | 0.00 | 0.00 | 0.00 | 98 | 1009.5 |
| 20260507060303 | 59 | 24 | 1.0 | 4.0 | 0.00 | 0.00 | 0.00 | 98 | 1009.5 |
| 20260507060004 | 58 | 30 | 3.0 | 4.0 | 0.00 | 0.00 | 0.00 | 98 | 1009.5 |
| 20260507055703 | 57 | 38 | 2.0 | 4.0 | 0.00 | 0.00 | 0.00 | 98 | 1009.5 |
| 20260507055103 | 56 | 49 | 4.0 | 4.0 | 0.00 | 0.00 | 0.00 | 98 | 1009.5 |
| 20260507054803 | 56 | 49 | 3.0 | 4.0 | 0.00 | 0.00 | 0.00 | 98 | 1009.5 |
| 20260507054204 | 56 | 38 | 2.0 | 3.0 | 0.00 | 0.00 | 0.00 | 98 | 1009.5 |
| 20260507053903 | 56 | 32 | 3.0 | 4.0 | 0.00 | 0.00 | 0.00 | 98 | 1009.5 |
| 20260507053303 | 56 | 23 | 2.0 | 4.0 | 0.00 | 0.00 | 0.00 | 98 | 1009.5 |
| 20260507052704 | 56 | 26 | 3.0 | 4.0 | 0.00 | 0.00 | 0.00 | 98 | 1009.5 |
| 20260507052404 | 56 | 33 | 3.0 | 4.0 | 0.00 | 0.00 | 0.00 | 98 | 1009.5 |
| 20260507052104 | 56 | 34 | 1.0 | 4.0 | 0.00 | 0.00 | 0.00 | 98 | 1009.5 |
| 20260507051804 | 56 | 38 | 4.0 | 4.0 | 0.00 | 0.00 | 0.00 | 98 | 1009.5 |
| 20260507051504 | 56 | 38 | 3.0 | 4.0 | 0.00 | 0.00 | 0.00 | 98 | 1009.5 |
| 20260507050904 | 56 | 71 | 1.0 | 2.0 | 0.00 | 0.00 | 0.00 | 98 | 1009.5 |
| 20260507050604 | 55 | 72 | 1.0 | 2.0 | 0.00 | 0.00 | 0.00 | 98 | 1009.5 |
| 20260507050304 | 55 | 90 | 0.0 | 2.0 | 0.00 | 0.00 | 0.00 | 98 | 1008.5 |
| 20260507050003 | 54 | 90 | 2.0 | 2.0 | 0.00 | 0.00 | 0.00 | 98 | 1008.5 |
| 20260507045704 | 54 | 337 | 0.0 | 2.0 | 0.00 | 0.00 | 0.00 | 98 | 1008.5 |
| 20260507045403 | 54 | 341 | 0.0 | 2.0 | 0.00 | 0.00 | 0.00 | 98 | 1008.5 |
| 20260507045104 | 54 | 343 | 0.0 | 2.0 | 0.00 | 0.00 | 0.00 | 98 | 1008.5 |
| 20260507044803 | 54 | 346 | 2.0 | 2.0 | 0.00 | 0.00 | 0.00 | 98 | 1008.5 |
| 20260507044503 | 54 | 350 | 2.0 | 2.0 | 0.00 | 0.00 | 0.00 | 98 | 1008.5 |
| 20260507043904 | 54 | 350 | 1.0 | 2.0 | 0.00 | 0.00 | 0.00 | 98 | 1008.5 |
| 20260507043603 | 54 | 346 | 2.0 | 2.0 | 0.00 | 0.00 | 0.00 | 98 | 1008.5 |
| 20260507043304 | 54 | 337 | 0.0 | 1.0 | 0.00 | 0.00 | 0.00 | 98 | 1009.5 |
| 20260507042404 | 54 | 340 | 0.0 | 2.0 | 0.00 | 0.00 | 0.00 | 98 | 1009.5 |
| 20260507042103 | 54 | 340 | 2.0 | 2.0 | 0.00 | 0.00 | 0.00 | 98 | 1009.5 |
| 20260507041804 | 54 | 350 | 2.0 | 2.0 | 0.00 | 0.00 | 0.00 | 98 | 1008.5 |
| 20260507041503 | 54 | 1 | 0.0 | 1.0 | 0.00 | 0.00 | 0.00 | 98 | 1008.5 |
| 20260507041204 | 55 | 1 | 1.0 | 2.0 | 0.00 | 0.00 | 0.00 | 98 | 1008.5 |
| 20260507040903 | 55 | 1 | 1.0 | 2.0 | 0.00 | 0.00 | 0.00 | 98 | 1008.5 |
| 20260507040604 | 55 | 3 | 1.0 | 2.0 | 0.00 | 0.00 | 0.00 | 98 | 1008.5 |
| 20260507040303 | 55 | 11 | 2.0 | 2.0 | 0.00 | 0.00 | 0.00 | 98 | 1009.5 |
| 20260507040004 | 55 | 13 | 1.0 | 2.0 | 0.00 | 0.00 | 0.00 | 98 | 1009.5 |
| 20260507035704 | 55 | 7 | 1.0 | 2.0 | 0.00 | 0.00 | 0.00 | 98 | 1009.5 |
| 20260507035403 | 55 | 357 | 2.0 | 2.0 | 0.00 | 0.00 | 0.00 | 98 | 1009.5 |
| 20260507035104 | 55 | 346 | 0.0 | 3.0 | 0.00 | 0.00 | 0.00 | 98 | 1009.5 |
| 20260507034804 | 55 | 349 | 2.0 | 3.0 | 0.00 | 0.00 | 0.00 | 98 | 1009.5 |
| 20260507034203 | 55 | 348 | 3.0 | 3.0 | 0.00 | 0.00 | 0.00 | 98 | 1009.5 |
| 20260507033903 | 54 | 352 | 2.0 | 3.0 | 0.00 | 0.00 | 0.00 | 98 | 1009.5 |
| 20260507033304 | 54 | 348 | 2.0 | 3.0 | 0.00 | 0.00 | 0.00 | 98 | 1008.5 |
| 20260507033003 | 54 | 342 | 2.0 | 2.0 | 0.00 | 0.00 | 0.00 | 98 | 1008.5 |
| 20260507032703 | 54 | 338 | 1.0 | 2.0 | 0.00 | 0.00 | 0.00 | 98 | 1008.5 |
| 20260507032404 | 54 | 335 | 2.0 | 2.0 | 0.00 | 0.00 | 0.00 | 98 | 1008.5 |
| 20260507031504 | 54 | 346 | 2.0 | 2.0 | 0.00 | 0.00 | 0.00 | 98 | 1009.5 |
| 20260507031204 | 54 | 348 | 1.0 | 2.0 | 0.00 | 0.00 | 0.00 | 98 | 1009.5 |
| 20260507030903 | 54 | 354 | 2.0 | 2.0 | 0.00 | 0.00 | 0.00 | 98 | 1009.5 |
| 20260507030603 | 54 | 352 | 1.0 | 2.0 | 0.00 | 0.00 | 0.00 | 98 | 1009.5 |
| 20260507030304 | 54 | 341 | 1.0 | 2.0 | 0.00 | 0.00 | 0.00 | 98 | 1009.5 |
| 20260507025704 | 54 | 334 | 2.0 | 2.0 | 0.00 | 0.00 | 0.00 | 98 | 1009.5 |
| 20260507025403 | 54 | 337 | 2.0 | 2.0 | 0.00 | 0.00 | 0.00 | 98 | 1009.5 |
| 20260507025104 | 55 | 343 | 2.0 | 2.0 | 0.00 | 0.00 | 0.00 | 98 | 1009.5 |
| 20260507024803 | 55 | 342 | 1.0 | 2.0 | 0.00 | 0.00 | 0.00 | 98 | 1009.5 |
| 20260507024203 | 55 | 326 | 2.0 | 2.0 | 0.00 | 0.00 | 0.00 | 98 | 1009.5 |
| 20260507023603 | 55 | 317 | 2.0 | 2.0 | 0.00 | 0.00 | 0.00 | 98 | 1009.5 |
| 20260507023004 | 55 | 331 | 2.0 | 3.0 | 0.00 | 0.00 | 0.00 | 98 | 1009.5 |
| 20260507022704 | 55 | 327 | 2.0 | 3.0 | 0.00 | 0.00 | 0.00 | 98 | 1009.5 |
| 20260507022104 | 55 | 314 | 3.0 | 3.0 | 0.00 | 0.00 | 0.00 | 98 | 1009.5 |
| 20260507021803 | 55 | 314 | 3.0 | 3.0 | 0.00 | 0.00 | 0.00 | 98 | 1009.5 |
| 20260507021504 | 55 | 337 | 0.0 | 2.0 | 0.00 | 0.00 | 0.00 | 98 | 1009.5 |
| 20260507021204 | 55 | 345 | 0.0 | 2.0 | 0.00 | 0.00 | 0.00 | 98 | 1009.5 |
| 20260507020903 | 55 | 353 | 0.0 | 2.0 | 0.00 | 0.00 | 0.00 | 98 | 1009.5 |
| 20260507020304 | 55 | 36 | 1.0 | 2.0 | 0.00 | 0.00 | 0.00 | 98 | 1009.5 |
| 20260507020004 | 55 | 46 | 0.0 | 2.0 | 0.00 | 0.00 | 0.00 | 98 | 1009.5 |
| 20260507015704 | 55 | 35 | 0.0 | 2.0 | 0.00 | 0.00 | 0.00 | 98 | 1009.5 |
| 20260507015404 | 55 | 350 | 0.0 | 1.0 | 0.00 | 0.00 | 0.00 | 98 | 1009.5 |
| 20260507015104 | 56 | 336 | 0.0 | 2.0 | 0.00 | 0.00 | 0.00 | 98 | 1009.5 |
| 20260507014803 | 56 | 336 | 1.0 | 2.0 | 0.00 | 0.00 | 0.00 | 98 | 1009.5 |
| 20260507014504 | 56 | 338 | 1.0 | 2.0 | 0.00 | 0.00 | 0.00 | 98 | 1009.5 |
| 20260507014204 | 56 | 7 | 2.0 | 3.0 | 0.00 | 0.00 | 0.00 | 98 | 1009.5 |
| 20260507013903 | 56 | 1 | 0.0 | 3.0 | 0.00 | 0.00 | 0.00 | 98 | 1009.5 |
| 20260507013604 | 56 | 359 | 1.0 | 3.0 | 0.00 | 0.00 | 0.00 | 98 | 1009.5 |
| 20260507012703 | 56 | 359 | 2.0 | 3.0 | 0.00 | 0.00 | 0.00 | 98 | 1009.5 |
| 20260507012404 | 56 | 359 | 2.0 | 3.0 | 0.00 | 0.00 | 0.00 | 98 | 1009.5 |
| 20260507012104 | 56 | 11 | 2.0 | 3.0 | 0.00 | 0.00 | 0.00 | 98 | 1009.5 |
| 20260507011804 | 56 | 14 | 3.0 | 3.0 | 0.00 | 0.00 | 0.00 | 98 | 1009.5 |
| 20260507010904 | 56 | 15 | 2.0 | 6.0 | 0.00 | 0.00 | 0.00 | 98 | 1009.5 |
| 20260507010604 | 56 | 14 | 3.0 | 6.0 | 0.00 | 0.00 | 0.00 | 98 | 1009.5 |
| 20260507010303 | 56 | 12 | 6.0 | 6.0 | 0.00 | 0.00 | 0.00 | 98 | 1009.5 |
| 20260507010004 | 56 | 8 | 4.0 | 4.0 | 0.00 | 0.00 | 0.00 | 98 | 1009.5 |
| 20260507005704 | 56 | 24 | 2.0 | 4.0 | 0.00 | 0.00 | 0.00 | 98 | 1009.5 |
| 20260507005103 | 56 | 30 | 4.0 | 4.0 | 0.00 | 0.00 | 0.00 | 98 | 1009.5 |
| 20260507004803 | 56 | 25 | 4.0 | 5.0 | 0.00 | 0.00 | 0.00 | 98 | 1009.5 |
| 20260507004504 | 56 | 16 | 2.0 | 5.0 | 0.00 | 0.00 | 0.00 | 98 | 1009.5 |